Location: ?????????
(54.7630°N, 39.4991°E)
Time: 07:11:53
(UTC+00:00)

SJ-6B - Pass Details

Date: 14 April 2026
Orbit: 453 x 498 km, 97.3° (Epoch: 12 May)

Event Time Altitude Azimuth Distance (km) Brightness Sun altitude
Rises 16:55:14 0° 185° (S) 2,584 6.1 -5.1°
Reaches altitude 10° 16:57:26 10° 194° (SSW) 1,703 5.2 -5.4°
Maximum altitude 17:00:51 36° 263° (W) 806 4.3 -5.8°
Drops below altitude 10° 17:04:16 10° 331° (NNW) 1,703 6.3 -6.2°
Sets 17:06:28 0° 340° (NNW) 2,584 7.0 -6.5°
